STARLINK-1110 (44946 NORAD) Tracking and Keplerian Element Data

This shows tracking and keplerian element data for the satellite.

Feedback or suggestion? Click here.




ElementValue
Catalog44946
NameSTARLINK-1110
Epoch Orbit721
Epoch Day52.78659316
Epoch Year2020
RAAN169.5509
Inclination52.9967
Eccentricity0.000214
Argument of Perigee32.6046
Mean Anonmoly327.5103
Mean Motion15.73212271
Decay Rate0.00016153
L11 44946U 20001AJ 20052.78659316 .00016153 00000-0 11920-3 0 9996
L22 44946 52.9967 169.5509 0002140 32.6046 327.5103 15.73212271 7212

Live tracking and technical data element details for STARLINK-1110 (NORAD 44946). STARLINK-1110 can be tracked NOW for your location showing map with azimuth and elevation plus other details from your city location.

Track the satellite on the map from your city or location and see movement details for azimuth, elevation, latitude, longitude, range, height, and movement on the map or in text.







IsCatalogInMostPopularTable: catalog: 44946, numindb: 12
Update: records affected: 1



GetName: 44946 STARLINK-1110

Hit Count: updated at: Wed, 26 Feb 2020 17:01:35 GMT